This demonstration page uses our WeatherBlox Daily Observations layout. Learn more.

Left ArrowRight Arrow

39.08367, -84.50855

Hourly Observations for April 12, 2022

Temp ( °F °C ) Dew Point ( °F °C ) Humidity (%) Winds ( mph kmh ) Pressure ( in mb ) Visibility ( mi km ) Precip ( " mm )
12:05 am 00:05 Cloudy 58 14.4 57 13.9 97 97 WSW 7 11 29.97 1015 10 16 0.00 0.00
12:53 am 00:53 Cloudy with Light Rain 58 14.4 57 13.9 97 97 WNW 5 7 29.99 1016 10 16 0.00 0.00
1:14 am 01:14 Cloudy with Light Rain 57 13.9 57 13.9 100 100 Calm 30.00 1016 10 16 0.00 0.00
1:35 am 01:35 Cloudy 56 13.3 56 13.3 100 100 SSW 6 9 30.00 1016 10 16 0.00 0.00
1:53 am 01:53 Cloudy 56 13.3 56 13.3 100 100 SSW 5 7 30.00 1016 10 16 0.00 0.00
2:53 am 02:53 Cloudy with Mist and Fog 55 12.8 55 12.8 100 100 Calm 30.00 1016 3 5 0.00 0.00
2:59 am 02:59 Cloudy with Mist and Fog 55 12.8 55 12.8 100 100 Calm 30.00 1016 1 2 0.00 0.00
3:07 am 03:07 Cloudy with Mist and Fog 54 12.2 54 12.2 100 100 NNW 7 11 30.01 1016 1 1 0.00 0.00
3:09 am 03:09 Cloudy with Mist and Fog 55 12.8 54 12.2 96 96 NNW 10 17 30.01 1016 1 2 0.00 0.00
3:14 am 03:14 Cloudy with Mist and Fog 56 13.3 55 12.8 97 97 N 14 22 30.00 1016 3 5 0.00 0.00
3:22 am 03:22 Cloudy 56 13.3 54 12.2 93 93 N 10 17 30.01 1016 10 16 0.00 0.00
3:53 am 03:53 Cloudy 54 12.2 52 11.1 93 93 NNE 6 9 30.02 1017 10 16 0.00 0.00
4:01 am 04:01 Cloudy 53 11.7 52 11.1 96 96 NE 6 9 30.03 1017 10 16 0.00 0.00
4:37 am 04:37 Cloudy 53 11.7 51 10.6 93 93 NE 3 6 30.04 1017 10 16 0.00 0.00
4:53 am 04:53 Cloudy 53 11.7 51 10.6 93 93 NE 3 6 30.03 1017 10 16 0.00 0.00
5:53 am 05:53 Cloudy 52 11.1 50 10 93 93 Calm 30.03 1017 10 16 0.00 0.00
6:53 am 06:53 Cloudy with Mist and Fog 51 10.6 51 10.6 100 100 NE 3 6 30.05 1018 6 10 0.00 0.00
7:53 am 07:53 Mostly Cloudy 51 10.6 50 10 96 96 NE 5 7 30.06 1018 10 16 0.00 0.00
8:53 am 08:53 Cloudy 55 12.8 52 11.1 90 90 NE 5 7 30.08 1019 10 16 0.00 0.00
9:53 am 09:53 Mostly Cloudy 58 14.4 53 11.7 84 84 NE 3 6 30.07 1018 10 16 0.00 0.00
10:53 am 10:53 Cloudy 62 16.7 56 13.3 80 80 SW 6 9 30.07 1018 10 16 0.00 0.00
11:31 am 11:31 Cloudy 62 16.7 56 13.3 80 80 S 13 20 30.07 1018 10 16 0.00 0.00
11:53 am 11:53 Cloudy 63 17.2 57 13.9 81 81 S 9 15 30.07 1018 10 16 0.00 0.00
12:22 pm 12:22 Cloudy 63 17.2 57 13.9 81 81 S 6 9 30.06 1018 10 16 0.00 0.00
12:53 pm 12:53 Cloudy 63 17.2 57 13.9 81 81 SSE 10 17 30.06 1018 10 16 0.00 0.00
1:53 pm 13:53 Cloudy 65 18.3 58 14.4 78 78 SSE 6 9 30.04 1017 10 16 0.00 0.00
2:53 pm 14:53 Cloudy 64 17.8 58 14.4 81 81 S 10 17 30.04 1017 10 16 0.00 0.00
3:53 pm 15:53 Cloudy 65 18.3 60 15.6 84 84 SSE 8 13 30.02 1017 10 16 0.00 0.00
4:53 pm 16:53 Mostly Cloudy 69 20.6 61 16.1 76 76 ESE 9 15 29.99 1016 10 16 0.00 0.00
5:53 pm 17:53 Mostly Cloudy 70 21.1 61 16.1 73 73 SSE 10 17 29.97 1015 10 16 0.00 0.00
6:53 pm 18:53 Mostly Cloudy 70 21.1 61 16.1 73 73 SSE 8 13 29.96 1015 10 16 0.00 0.00
7:53 pm 19:53 Mostly Cloudy 68 20 60 15.6 76 76 S 9 15 29.96 1015 10 16 0.00 0.00
8:53 pm 20:53 Cloudy 67 19.4 60 15.6 79 79 S 10 17 29.96 1014 10 16 0.00 0.00
9:53 pm 21:53 Mostly Cloudy 66 18.9 60 15.6 81 81 S 8 13 29.95 1014 10 16 0.00 0.00
10:53 pm 22:53 Partly Cloudy 64 17.8 60 15.6 87 87 SSW 6 9 29.93 1014 10 16 0.00 0.00
11:53 pm 23:53 Clear 64 17.8 60 15.6 87 87 S 7 11 29.92 1013 10 16 0.00 0.00

Powered by AerisWeather